Flag for Argentina Weather past 2 weeks in Buenos Aires, Argentina

Now
66 °F

Clear.


Feels Like: 66 °F
Forecast: 54 / 68 °F
Wind: 13 mph from South

Location: Buenos Aires Airport


UV Index: 3 (Moderate)

Visibility: 10 mi


Pressure: 30.01 "Hg

Humidity: 49%

Dew point: 46 °F

Location of Buenos AiresLocation

Historic Weather in Buenos Aires

°F

Buenos Aires temperature yesterday

Maximum temperature yesterday: 72 °F (at 2:00 PM)
Minimum temperature yesterday: 61 °F (at 4:00 AM)
Average temperature yesterday: 66 °F

Past Weeks' High & Low Weather Summary

 TemperatureHumidityPressure
High77 °F (Apr 3, 3:00 PM)100% (Apr 7, 3:00 AM)30.21 "Hg (Apr 7, 3:00 AM)
Low50 °F (Apr 12, 5:00 PM)31% (Apr 8, 5:00 PM)29.53 "Hg (Apr 8, 3:00 AM)
Average67 °F73%29.94 "Hg
* Reported Apr 2 8:00 PM — Apr 17 8:00 PM, Buenos Aires, Weather by CustomWeather, © 2014

Note: Actual official high and low records may vary slightly from our data, if they occured in-between our weather recording intervals... More about our weather records

Advertising

Historic Weather Conditions — Data for Previous 24 hours

 ConditionsComfort  
Time TempWeatherWind HumidityBarometerVisibility
8:00 PM
Apr 17
66 °FClear.10 mph56%30.01 "Hg10 mi
7:00 PM66 °FClear.12 mph52%29.98 "Hg6 mi
6:00 PM68 °FClear.15 mph49%29.95 "Hg6 mi
5:00 PM70 °FClear.16 mph40%29.95 "Hg6 mi
4:00 PM72 °FClear.15 mph50%29.92 "Hg4 mi
3:00 PM72 °FClear.16 mph57%29.92 "Hg4 mi
2:00 PM77 °FClear.14 mph44%29.92 "Hg4 mi
1:00 PM75 °FHaze.10 mph47%29.92 "Hg3 mi
12:00 PM72 °FClear.5 mph65%29.95 "Hg4 mi
11:00 AM68 °FClear.6 mph69%29.95 "Hg5 mi
10:00 AM66 °FClear.3 mph73%29.95 "Hg5 mi
9:00 AM64 °FSunny.6 mph78%29.92 "Hg10 mi
8:00 AM64 °FSunny.6 mph78%29.92 "Hg10 mi
7:00 AM64 °FSunny.2 mph78%29.92 "Hg10 mi
6:00 AM64 °FClear.3 mph73%29.92 "Hg10 mi
5:00 AM64 °FClear.5 mph68%29.89 "Hg10 mi
4:00 AM64 °FClear.3 mph73%29.89 "Hg10 mi
3:00 AM64 °FClear.3 mph73%29.89 "Hg10 mi
2:00 AM66 °FClear.3 mph64%29.89 "Hg10 mi
1:00 AM66 °FClear.6 mph64%29.89 "Hg10 mi
12:00 AM66 °FClear.7 mph64%29.89 "Hg10 mi
11:00 PM
Apr 16
64 °FClear.6 mph78%29.89 "Hg10 mi
10:00 PM66 °FClear.3 mph73%29.89 "Hg10 mi
9:00 PM66 °FClear.5 mph73%29.89 "Hg10 mi
Weather by CustomWeather, © 2014

See weather overview